{"data":{"norad_id":68499,"epoch":"2026-09-19T15:31:17.118624Z","epoch_age_seconds":140175,"freshness":"FRESH","line1":"1 68499U 26067CM  26262.64672591  .00001103  00000+0  11495-3 0  9992","line2":"2 68499  97.7681 219.3957 0002882  88.4731 271.6818 14.91784489 25806","mean_motion":14.91784489,"eccentricity":0.0002882,"inclination_deg":97.7681,"raan_deg":219.3957,"arg_perigee_deg":88.4731,"mean_anomaly_deg":271.6818,"bstar":0.00011495,"rev_number":2580,"period_min":96.528688333882,"perigee_km":590.3624185218,"apogee_km":594.38021951688,"semimajor_km":6970.5083190193,"source":"CELESTRAK","updated_at":"2026-09-20T09:00:24.260696Z"}}